Year,Month,Day,Hour,Minute,Value (Times are PST for temperature in C)
2017,05,20,00,00,11.20
2017,05,20,00,01,11.20
2017,05,20,00,02,11.20
2017,05,20,00,03,11.20
2017,05,20,00,04,11.20
2017,05,20,00,05,11.10
2017,05,20,00,06,11.10
2017,05,20,00,07,11.10
2017,05,20,00,08,11.10
2017,05,20,00,09,11.10
2017,05,20,00,10,11.10
2017,05,20,00,11,11.10
2017,05,20,00,12,11.00
2017,05,20,00,13,11.00
2017,05,20,00,14,10.90
2017,05,20,00,15,10.90
2017,05,20,00,16,10.90
2017,05,20,00,17,10.90
2017,05,20,00,18,10.90
2017,05,20,00,19,10.80
2017,05,20,00,20,10.80
2017,05,20,00,21,10.80
2017,05,20,00,22,10.80
2017,05,20,00,23,10.80
2017,05,20,00,24,10.70
2017,05,20,00,25,10.70
2017,05,20,00,26,10.70
2017,05,20,00,27,10.70
2017,05,20,00,28,10.70
2017,05,20,00,29,10.70
2017,05,20,00,30,10.70
2017,05,20,00,31,10.70
2017,05,20,00,32,10.60
2017,05,20,00,33,10.60
2017,05,20,00,34,10.60
2017,05,20,00,35,10.60
2017,05,20,00,36,10.60
2017,05,20,00,37,10.60
2017,05,20,00,38,10.60
2017,05,20,00,39,10.60
2017,05,20,00,40,10.60
2017,05,20,00,41,10.50
2017,05,20,00,42,10.50
2017,05,20,00,43,10.50
2017,05,20,00,44,10.50
2017,05,20,00,45,10.50
2017,05,20,00,46,10.40
2017,05,20,00,47,10.40
2017,05,20,00,48,10.40
2017,05,20,00,49,10.40
2017,05,20,00,50,10.40
2017,05,20,00,51,10.40
2017,05,20,00,52,10.40
2017,05,20,00,53,10.40
2017,05,20,00,54,10.40
2017,05,20,00,55,10.40
2017,05,20,00,56,10.40
2017,05,20,00,57,10.40
2017,05,20,00,58,10.40
2017,05,20,00,59,10.40
2017,05,20,01,00,10.40
2017,05,20,01,01,10.40
2017,05,20,01,02,10.40
2017,05,20,01,03,10.40
2017,05,20,01,04,10.40
2017,05,20,01,05,10.30
2017,05,20,01,06,10.30
2017,05,20,01,07,10.30
2017,05,20,01,08,10.30
2017,05,20,01,09,10.30
2017,05,20,01,10,10.30
2017,05,20,01,11,10.30
2017,05,20,01,12,10.30
2017,05,20,01,13,10.30
2017,05,20,01,14,10.30
2017,05,20,01,15,10.30
2017,05,20,01,16,10.30
2017,05,20,01,17,10.30
2017,05,20,01,18,10.30
2017,05,20,01,19,10.30
2017,05,20,01,20,10.30
2017,05,20,01,21,10.30
2017,05,20,01,22,10.30
2017,05,20,01,23,10.30
2017,05,20,01,24,10.30
2017,05,20,01,25,10.30
2017,05,20,01,26,10.30
2017,05,20,01,27,10.30
2017,05,20,01,28,10.30
2017,05,20,01,29,10.30
2017,05,20,01,30,10.30
2017,05,20,01,31,10.30
2017,05,20,01,32,10.30
2017,05,20,01,33,10.30
2017,05,20,01,34,10.30
2017,05,20,01,35,10.30
2017,05,20,01,36,10.30
2017,05,20,01,37,10.30
2017,05,20,01,38,10.30
2017,05,20,01,39,10.30
2017,05,20,01,40,10.30
2017,05,20,01,41,10.30
2017,05,20,01,42,10.30
2017,05,20,01,43,10.30
2017,05,20,01,44,10.30
2017,05,20,01,45,10.30
2017,05,20,01,46,10.30
2017,05,20,01,47,10.30
2017,05,20,01,48,10.20
2017,05,20,01,49,10.20
2017,05,20,01,50,10.20
2017,05,20,01,51,10.20
2017,05,20,01,52,10.20
2017,05,20,01,53,10.20
2017,05,20,01,54,10.20
2017,05,20,01,55,10.20
2017,05,20,01,56,10.20
2017,05,20,01,57,10.20
2017,05,20,01,58,10.20
2017,05,20,01,59,10.20
2017,05,20,02,00,10.20
2017,05,20,02,01,10.20
2017,05,20,02,02,10.20
2017,05,20,02,03,10.20
2017,05,20,02,04,10.20
2017,05,20,02,05,10.20
2017,05,20,02,06,10.20
2017,05,20,02,07,10.10
2017,05,20,02,08,10.10
2017,05,20,02,09,10.10
2017,05,20,02,10,10.10
2017,05,20,02,11,10.10
2017,05,20,02,12,10.10
2017,05,20,02,13,10.10
2017,05,20,02,14,10.00
2017,05,20,02,15,10.00
2017,05,20,02,16,10.00
2017,05,20,02,17,10.00
2017,05,20,02,18,9.90
2017,05,20,02,19,9.90
2017,05,20,02,20,9.90
2017,05,20,02,21,9.90
2017,05,20,02,22,9.80
2017,05,20,02,23,9.80
2017,05,20,02,24,9.80
2017,05,20,02,25,9.80
2017,05,20,02,26,9.80
2017,05,20,02,27,9.70
2017,05,20,02,28,9.70
2017,05,20,02,29,9.70
2017,05,20,02,30,9.70
2017,05,20,02,31,9.70
2017,05,20,02,32,9.60
2017,05,20,02,33,9.60
2017,05,20,02,34,9.60
2017,05,20,02,35,9.60
2017,05,20,02,36,9.60
2017,05,20,02,37,9.50
2017,05,20,02,38,9.50
2017,05,20,02,39,9.40
2017,05,20,02,40,9.40
2017,05,20,02,41,9.40
2017,05,20,02,42,9.30
2017,05,20,02,43,9.30
2017,05,20,02,44,9.30
2017,05,20,02,45,9.30
2017,05,20,02,46,9.30
2017,05,20,02,47,9.30
2017,05,20,02,48,9.30
2017,05,20,02,49,9.30
2017,05,20,02,50,9.30
2017,05,20,02,51,9.30
2017,05,20,02,52,9.30
2017,05,20,02,53,9.20
2017,05,20,02,54,9.20
2017,05,20,02,55,9.20
2017,05,20,02,56,9.20
2017,05,20,02,57,9.20
2017,05,20,02,58,9.20
2017,05,20,02,59,9.30
2017,05,20,03,00,9.30
2017,05,20,03,01,9.20
2017,05,20,03,02,9.20
2017,05,20,03,03,9.20
2017,05,20,03,04,9.30
2017,05,20,03,05,9.30
2017,05,20,03,06,9.30
2017,05,20,03,07,9.30
2017,05,20,03,08,9.30
2017,05,20,03,09,9.20
2017,05,20,03,10,9.20
2017,05,20,03,11,9.20
2017,05,20,03,12,9.20
2017,05,20,03,13,9.20
2017,05,20,03,14,9.20
2017,05,20,03,15,9.20
2017,05,20,03,16,9.20
2017,05,20,03,17,9.20
2017,05,20,03,18,9.10
2017,05,20,03,19,9.10
2017,05,20,03,20,9.10
2017,05,20,03,21,9.10
2017,05,20,03,22,9.10
2017,05,20,03,23,9.00
2017,05,20,03,24,9.00
2017,05,20,03,25,9.00
2017,05,20,03,26,8.90
2017,05,20,03,27,8.90
2017,05,20,03,28,8.90
2017,05,20,03,29,8.90
2017,05,20,03,30,8.90
2017,05,20,03,31,8.90
2017,05,20,03,32,8.90
2017,05,20,03,33,8.90
2017,05,20,03,34,8.80
2017,05,20,03,35,8.80
2017,05,20,03,36,8.80
2017,05,20,03,37,8.80
2017,05,20,03,38,8.80
2017,05,20,03,39,8.80
2017,05,20,03,40,8.80
2017,05,20,03,41,8.70
2017,05,20,03,42,8.70
2017,05,20,03,43,8.70
2017,05,20,03,44,8.70
2017,05,20,03,45,8.70
2017,05,20,03,46,8.70
2017,05,20,03,47,8.70
2017,05,20,03,48,8.70
2017,05,20,03,49,8.70
2017,05,20,03,50,8.70
2017,05,20,03,51,8.70
2017,05,20,03,52,8.70
2017,05,20,03,53,8.70
2017,05,20,03,54,8.70
2017,05,20,03,55,8.70
2017,05,20,03,56,8.70
2017,05,20,03,57,8.70
2017,05,20,03,58,8.70
2017,05,20,03,59,8.70
2017,05,20,04,00,8.70
2017,05,20,04,01,8.70
2017,05,20,04,02,8.70
2017,05,20,04,03,8.70
2017,05,20,04,04,8.80
2017,05,20,04,05,8.80
2017,05,20,04,06,8.80
2017,05,20,04,07,8.80
2017,05,20,04,08,8.80
2017,05,20,04,09,8.90
2017,05,20,04,10,8.90
2017,05,20,04,11,8.90
2017,05,20,04,12,8.90
2017,05,20,04,13,9.00
2017,05,20,04,14,9.00
2017,05,20,04,15,9.00
2017,05,20,04,16,9.00
2017,05,20,04,17,9.00
2017,05,20,04,18,9.00
2017,05,20,04,19,9.10
2017,05,20,04,20,9.10
2017,05,20,04,21,9.10
2017,05,20,04,22,9.10
2017,05,20,04,23,9.10
2017,05,20,04,24,9.10
2017,05,20,04,25,9.20
2017,05,20,04,26,9.20
2017,05,20,04,27,9.20
2017,05,20,04,28,9.20
2017,05,20,04,29,9.30
2017,05,20,04,30,9.30
2017,05,20,04,31,9.40
2017,05,20,04,32,9.40
2017,05,20,04,33,9.40
2017,05,20,04,34,9.50
2017,05,20,04,35,9.50
2017,05,20,04,36,9.50
2017,05,20,04,37,9.60
2017,05,20,04,38,9.60
2017,05,20,04,39,9.60
2017,05,20,04,40,9.60
2017,05,20,04,41,9.70
2017,05,20,04,42,9.70
2017,05,20,04,43,9.70
2017,05,20,04,44,9.70
2017,05,20,04,45,9.70
2017,05,20,04,46,9.80
2017,05,20,04,47,9.80
2017,05,20,04,48,9.80
2017,05,20,04,49,9.80
2017,05,20,04,50,9.80
2017,05,20,04,51,9.80
2017,05,20,04,52,9.80
2017,05,20,04,53,9.80
2017,05,20,04,54,9.80
2017,05,20,04,55,9.80
2017,05,20,04,56,9.80
2017,05,20,04,57,9.80
2017,05,20,04,58,9.80
2017,05,20,04,59,9.80
2017,05,20,05,00,9.80
2017,05,20,05,01,9.80
2017,05,20,05,02,9.80
2017,05,20,05,03,9.80
2017,05,20,05,04,9.80
2017,05,20,05,05,9.80
2017,05,20,05,06,9.80
2017,05,20,05,07,9.80
2017,05,20,05,08,9.80
2017,05,20,05,09,9.80
2017,05,20,05,10,9.80
2017,05,20,05,11,9.70
2017,05,20,05,12,9.70
2017,05,20,05,13,9.70
2017,05,20,05,14,9.70
2017,05,20,05,15,9.70
2017,05,20,05,16,9.70
2017,05,20,05,17,9.70
2017,05,20,05,18,9.60
2017,05,20,05,19,9.60
2017,05,20,05,20,9.60
2017,05,20,05,21,9.60
2017,05,20,05,22,9.60
2017,05,20,05,23,9.50
2017,05,20,05,24,9.50
2017,05,20,05,25,9.50
2017,05,20,05,26,9.40
2017,05,20,05,27,9.40
2017,05,20,05,28,9.40
2017,05,20,05,29,9.30
2017,05,20,05,30,9.30
2017,05,20,05,31,9.30
2017,05,20,05,32,9.30
2017,05,20,05,33,9.30
2017,05,20,05,34,9.30
2017,05,20,05,35,9.30
2017,05,20,05,36,9.30
2017,05,20,05,37,9.20
2017,05,20,05,38,9.20
2017,05,20,05,39,9.20
2017,05,20,05,40,9.20
2017,05,20,05,41,9.20
2017,05,20,05,42,9.20
2017,05,20,05,43,9.10
2017,05,20,05,44,9.10
2017,05,20,05,45,9.10
2017,05,20,05,46,9.10
2017,05,20,05,47,9.00
2017,05,20,05,48,9.00
2017,05,20,05,49,9.00
2017,05,20,05,50,9.00
2017,05,20,05,51,8.90
2017,05,20,05,52,8.90
2017,05,20,05,53,8.90
2017,05,20,05,54,8.90
2017,05,20,05,55,8.90
2017,05,20,05,56,8.80
2017,05,20,05,57,8.80
2017,05,20,05,58,8.80
2017,05,20,05,59,8.80
2017,05,20,06,00,8.80
2017,05,20,06,01,8.80
2017,05,20,06,02,8.80
2017,05,20,06,03,8.80
2017,05,20,06,04,8.80
2017,05,20,06,05,8.80
2017,05,20,06,06,8.70
2017,05,20,06,07,8.70
2017,05,20,06,08,8.70
2017,05,20,06,09,8.70
2017,05,20,06,10,8.70
2017,05,20,06,11,8.70
2017,05,20,06,12,8.70
2017,05,20,06,13,8.70
2017,05,20,06,14,8.70
2017,05,20,06,15,8.70
2017,05,20,06,16,8.70
2017,05,20,06,17,8.70
2017,05,20,06,18,8.70
2017,05,20,06,19,8.80
2017,05,20,06,20,8.80
2017,05,20,06,21,8.80
2017,05,20,06,22,8.80
2017,05,20,06,23,8.70
2017,05,20,06,24,8.70
2017,05,20,06,25,8.70
2017,05,20,06,26,8.70
2017,05,20,06,27,8.70
2017,05,20,06,28,8.70
2017,05,20,06,29,8.70
2017,05,20,06,30,8.70
2017,05,20,06,31,8.70
2017,05,20,06,32,8.70
2017,05,20,06,33,8.80
2017,05,20,06,34,8.80
2017,05,20,06,35,8.80
2017,05,20,06,36,8.80
2017,05,20,06,37,8.90
2017,05,20,06,38,8.90
2017,05,20,06,39,9.00
2017,05,20,06,40,9.00
2017,05,20,06,41,9.10
2017,05,20,06,42,9.20
2017,05,20,06,43,9.30
2017,05,20,06,44,9.40
2017,05,20,06,45,9.40
2017,05,20,06,46,9.50
2017,05,20,06,47,9.50
2017,05,20,06,48,9.60
2017,05,20,06,49,9.60
2017,05,20,06,50,9.70
2017,05,20,06,51,9.70
2017,05,20,06,52,9.70
2017,05,20,06,53,9.70
2017,05,20,06,54,9.70
2017,05,20,06,55,9.70
2017,05,20,06,56,9.70
2017,05,20,06,57,9.70
2017,05,20,06,58,9.80
2017,05,20,06,59,9.80
2017,05,20,07,00,9.90
2017,05,20,07,01,9.90
2017,05,20,07,02,10.00
2017,05,20,07,03,10.00
2017,05,20,07,04,10.10
2017,05,20,07,05,10.20
2017,05,20,07,06,10.20
2017,05,20,07,07,10.30
2017,05,20,07,08,10.30
2017,05,20,07,09,10.30
2017,05,20,07,10,10.40
2017,05,20,07,11,10.40
2017,05,20,07,12,10.50
2017,05,20,07,13,10.60
2017,05,20,07,14,10.70
2017,05,20,07,15,10.70
2017,05,20,07,16,10.80
2017,05,20,07,17,10.80
2017,05,20,07,18,10.90
2017,05,20,07,19,10.90
2017,05,20,07,20,10.90
2017,05,20,07,21,11.00
2017,05,20,07,22,11.10
2017,05,20,07,23,11.10
2017,05,20,07,24,11.10
2017,05,20,07,25,11.10
2017,05,20,07,26,11.20
2017,05,20,07,27,11.20
2017,05,20,07,28,11.20
2017,05,20,07,29,11.20
2017,05,20,07,30,11.30
2017,05,20,07,31,11.30
2017,05,20,07,32,11.30
2017,05,20,07,33,11.30
2017,05,20,07,34,11.30
2017,05,20,07,35,11.30
2017,05,20,07,36,11.30
2017,05,20,07,37,11.30
2017,05,20,07,38,11.30
2017,05,20,07,39,11.40
2017,05,20,07,40,11.40
2017,05,20,07,41,11.40
2017,05,20,07,42,11.40
2017,05,20,07,43,11.40
2017,05,20,07,44,11.50
2017,05,20,07,45,11.50
2017,05,20,07,46,11.60
2017,05,20,07,47,11.60
2017,05,20,07,48,11.70
2017,05,20,07,49,11.70
2017,05,20,07,50,11.80
2017,05,20,07,51,11.80
2017,05,20,07,52,11.80
2017,05,20,07,53,11.80
2017,05,20,07,54,11.90
2017,05,20,07,55,11.90
2017,05,20,07,56,12.00
2017,05,20,07,57,12.10
2017,05,20,07,58,12.10
2017,05,20,07,59,12.20
2017,05,20,08,00,12.30
2017,05,20,08,01,12.30
2017,05,20,08,02,12.40
2017,05,20,08,03,12.40
2017,05,20,08,04,12.50
2017,05,20,08,05,12.60
2017,05,20,08,06,12.60
2017,05,20,08,07,12.70
2017,05,20,08,08,12.70
2017,05,20,08,09,12.80
2017,05,20,08,10,12.80
2017,05,20,08,11,12.90
2017,05,20,08,12,12.90
2017,05,20,08,13,13.00
2017,05,20,08,14,13.10
2017,05,20,08,15,13.10
2017,05,20,08,16,13.20
2017,05,20,08,17,13.20
2017,05,20,08,18,13.30
2017,05,20,08,19,13.30
2017,05,20,08,20,13.40
2017,05,20,08,21,13.50
2017,05,20,08,22,13.50
2017,05,20,08,23,13.60
2017,05,20,08,24,13.60
2017,05,20,08,25,13.60
2017,05,20,08,26,13.70
2017,05,20,08,27,13.80
2017,05,20,08,28,13.80
2017,05,20,08,29,13.80
2017,05,20,08,30,13.90
2017,05,20,08,31,14.00
2017,05,20,08,32,14.10
2017,05,20,08,33,14.20
2017,05,20,08,34,14.30
2017,05,20,08,35,14.40
2017,05,20,08,36,14.50
2017,05,20,08,37,14.60
2017,05,20,08,38,14.70
2017,05,20,08,39,14.80
2017,05,20,08,40,14.80
2017,05,20,08,41,14.90
2017,05,20,08,42,15.00
2017,05,20,08,43,15.00
2017,05,20,08,44,15.10
2017,05,20,08,45,15.20
2017,05,20,08,46,15.20
2017,05,20,08,47,15.30
2017,05,20,08,48,15.40
2017,05,20,08,49,15.50
2017,05,20,08,50,15.60
2017,05,20,08,51,15.60
2017,05,20,08,52,15.70
2017,05,20,08,53,15.80
2017,05,20,08,54,15.90
2017,05,20,08,55,16.10
2017,05,20,08,56,16.20
2017,05,20,08,57,16.30
2017,05,20,08,58,16.50
2017,05,20,08,59,16.60
2017,05,20,09,00,16.70
2017,05,20,09,01,16.70
2017,05,20,09,02,16.80
2017,05,20,09,03,16.80
2017,05,20,09,04,16.80
2017,05,20,09,05,16.90
2017,05,20,09,06,16.90
2017,05,20,09,07,17.00
2017,05,20,09,08,17.10
2017,05,20,09,09,17.20
2017,05,20,09,10,17.20
2017,05,20,09,11,17.20
2017,05,20,09,12,17.30
2017,05,20,09,13,17.30
2017,05,20,09,14,17.30
2017,05,20,09,15,17.20
2017,05,20,09,16,17.20
2017,05,20,09,17,17.20
2017,05,20,09,18,17.20
2017,05,20,09,19,17.20
2017,05,20,09,20,17.20
2017,05,20,09,21,17.10
2017,05,20,09,22,17.20
2017,05,20,09,23,17.20
2017,05,20,09,24,17.30
2017,05,20,09,25,17.30
2017,05,20,09,26,17.30
2017,05,20,09,27,17.40
2017,05,20,09,28,17.40
2017,05,20,09,29,17.40
2017,05,20,09,30,17.40
2017,05,20,09,31,17.40
2017,05,20,09,32,17.50
2017,05,20,09,33,17.50
2017,05,20,09,34,17.50
2017,05,20,09,35,17.50
2017,05,20,09,36,17.40
2017,05,20,09,37,17.40
2017,05,20,09,38,17.50
2017,05,20,09,39,17.40
2017,05,20,09,40,17.40
2017,05,20,09,41,17.40
2017,05,20,09,42,17.40
2017,05,20,09,43,17.50
2017,05,20,09,44,17.50
2017,05,20,09,45,17.50
2017,05,20,09,46,17.50
2017,05,20,09,47,17.60
2017,05,20,09,48,17.60
2017,05,20,09,49,17.60
2017,05,20,09,50,17.50
2017,05,20,09,51,17.50
2017,05,20,09,52,17.60
2017,05,20,09,53,17.60
2017,05,20,09,54,17.60
2017,05,20,09,55,17.60
2017,05,20,09,56,17.70
2017,05,20,09,57,17.60
2017,05,20,09,58,17.60
2017,05,20,09,59,17.50
2017,05,20,10,00,17.50
2017,05,20,10,01,17.40
2017,05,20,10,02,17.40
2017,05,20,10,03,17.40
2017,05,20,10,04,17.40
2017,05,20,10,05,17.30
2017,05,20,10,06,17.30
2017,05,20,10,07,17.30
2017,05,20,10,08,17.40
2017,05,20,10,09,17.50
2017,05,20,10,10,17.60
2017,05,20,10,11,17.70
2017,05,20,10,12,17.90
2017,05,20,10,13,18.00
2017,05,20,10,14,18.10
2017,05,20,10,15,18.20
2017,05,20,10,16,18.30
2017,05,20,10,17,18.40
2017,05,20,10,18,18.50
2017,05,20,10,19,18.60
2017,05,20,10,20,18.70
2017,05,20,10,21,18.70
2017,05,20,10,22,18.70
2017,05,20,10,23,18.70
2017,05,20,10,24,18.60
2017,05,20,10,25,18.60
2017,05,20,10,26,18.60
2017,05,20,10,27,18.50
2017,05,20,10,28,18.50
2017,05,20,10,29,18.50
2017,05,20,10,30,18.50
2017,05,20,10,31,18.50
2017,05,20,10,32,18.50
2017,05,20,10,33,18.60
2017,05,20,10,34,18.70
2017,05,20,10,35,18.70
2017,05,20,10,36,18.80
2017,05,20,10,37,18.80
2017,05,20,10,38,18.80
2017,05,20,10,39,18.80
2017,05,20,10,40,18.90
2017,05,20,10,41,18.90
2017,05,20,10,42,18.80
2017,05,20,10,43,18.80
2017,05,20,10,44,18.80
2017,05,20,10,45,18.90
2017,05,20,10,46,18.90
2017,05,20,10,47,18.90
2017,05,20,10,48,18.90
2017,05,20,10,49,18.80
2017,05,20,10,50,18.80
2017,05,20,10,51,18.80
2017,05,20,10,52,18.80
2017,05,20,10,53,18.80
2017,05,20,10,54,18.80
2017,05,20,10,55,18.80
2017,05,20,10,56,18.70
2017,05,20,10,57,18.60
2017,05,20,10,58,18.50
2017,05,20,10,59,18.50
2017,05,20,11,00,18.50
2017,05,20,11,01,18.50
2017,05,20,11,02,18.60
2017,05,20,11,03,18.60
2017,05,20,11,04,18.70
2017,05,20,11,05,18.80
2017,05,20,11,06,18.80
2017,05,20,11,07,18.90
2017,05,20,11,08,18.90
2017,05,20,11,09,18.90
2017,05,20,11,10,18.80
2017,05,20,11,11,18.80
2017,05,20,11,12,18.70
2017,05,20,11,13,18.70
2017,05,20,11,14,18.80
2017,05,20,11,15,18.80
2017,05,20,11,16,18.80
2017,05,20,11,17,18.80
2017,05,20,11,18,18.70
2017,05,20,11,19,18.60
2017,05,20,11,20,18.60
2017,05,20,11,21,18.60
2017,05,20,11,22,18.60
2017,05,20,11,23,18.60
2017,05,20,11,24,18.60
2017,05,20,11,25,18.60
2017,05,20,11,26,18.70
2017,05,20,11,27,18.60
2017,05,20,11,28,18.60
2017,05,20,11,29,18.70
2017,05,20,11,30,18.70
2017,05,20,11,31,18.80
2017,05,20,11,32,18.80
2017,05,20,11,33,18.80
2017,05,20,11,34,18.80
2017,05,20,11,35,18.80
2017,05,20,11,36,18.80
2017,05,20,11,37,18.80
2017,05,20,11,38,18.90
2017,05,20,11,39,19.00
2017,05,20,11,40,19.00
2017,05,20,11,41,19.10
2017,05,20,11,42,19.20
2017,05,20,11,43,19.30
2017,05,20,11,44,19.30
2017,05,20,11,45,19.20
2017,05,20,11,46,19.20
2017,05,20,11,47,19.10
2017,05,20,11,48,19.10
2017,05,20,11,49,19.10
2017,05,20,11,50,19.10
2017,05,20,11,51,19.00
2017,05,20,11,52,19.00
2017,05,20,11,53,19.10
2017,05,20,11,54,19.10
2017,05,20,11,55,19.10
2017,05,20,11,56,19.10
2017,05,20,11,57,19.20
2017,05,20,11,58,19.30
2017,05,20,11,59,19.30
2017,05,20,12,00,19.40
2017,05,20,12,01,19.50
2017,05,20,12,02,19.50
2017,05,20,12,03,19.60
2017,05,20,12,04,19.70
2017,05,20,12,05,19.80
2017,05,20,12,06,19.80
2017,05,20,12,07,19.80
2017,05,20,12,08,19.80
2017,05,20,12,09,19.90
2017,05,20,12,10,19.90
2017,05,20,12,11,19.90
2017,05,20,12,12,19.90
2017,05,20,12,13,19.90
2017,05,20,12,14,19.90
2017,05,20,12,15,20.00
2017,05,20,12,16,20.00
2017,05,20,12,17,20.10
2017,05,20,12,18,20.10
2017,05,20,12,19,20.10
2017,05,20,12,20,20.10
2017,05,20,12,21,20.10
2017,05,20,12,22,20.00
2017,05,20,12,23,19.90
2017,05,20,12,24,19.80
2017,05,20,12,25,19.80
2017,05,20,12,26,19.80
2017,05,20,12,27,19.80
2017,05,20,12,28,19.80
2017,05,20,12,29,19.90
2017,05,20,12,30,20.00
2017,05,20,12,31,20.10
2017,05,20,12,32,20.20
2017,05,20,12,33,20.30
2017,05,20,12,34,20.40
2017,05,20,12,35,20.40
2017,05,20,12,36,20.50
2017,05,20,12,37,20.60
2017,05,20,12,38,20.70
2017,05,20,12,39,20.70
2017,05,20,12,40,20.80
2017,05,20,12,41,20.80
2017,05,20,12,42,20.70
2017,05,20,12,43,20.60
2017,05,20,12,44,20.60
2017,05,20,12,45,20.50
2017,05,20,12,46,20.40
2017,05,20,12,47,20.30
2017,05,20,12,48,20.10
2017,05,20,12,49,20.00
2017,05,20,12,50,20.00
2017,05,20,12,51,20.00
2017,05,20,12,52,20.00
2017,05,20,12,53,19.90
2017,05,20,12,54,19.90
2017,05,20,12,55,19.90
2017,05,20,12,56,19.90
2017,05,20,12,57,19.90
2017,05,20,12,58,19.80
2017,05,20,12,59,19.70
2017,05,20,13,00,19.70
2017,05,20,13,01,19.70
2017,05,20,13,02,19.80
2017,05,20,13,03,19.90
2017,05,20,13,04,20.00
2017,05,20,13,05,20.10
2017,05,20,13,06,20.20
2017,05,20,13,07,20.40
2017,05,20,13,08,20.60
2017,05,20,13,09,20.70
2017,05,20,13,10,20.70
2017,05,20,13,11,20.70
2017,05,20,13,12,20.70
2017,05,20,13,13,20.60
2017,05,20,13,14,20.60
2017,05,20,13,15,20.60
2017,05,20,13,16,20.60
2017,05,20,13,17,20.50
2017,05,20,13,18,20.50
2017,05,20,13,19,20.50
2017,05,20,13,20,20.60
2017,05,20,13,21,20.60
2017,05,20,13,22,20.60
2017,05,20,13,23,20.70
2017,05,20,13,24,20.80
2017,05,20,13,25,20.90
2017,05,20,13,26,20.90
2017,05,20,13,27,20.90
2017,05,20,13,28,20.70
2017,05,20,13,29,20.70
2017,05,20,13,30,20.60
2017,05,20,13,31,20.60
2017,05,20,13,32,20.70
2017,05,20,13,33,20.70
2017,05,20,13,34,20.70
2017,05,20,13,35,20.80
2017,05,20,13,36,20.80
2017,05,20,13,37,20.90
2017,05,20,13,38,21.00
2017,05,20,13,39,21.10
2017,05,20,13,40,21.20
2017,05,20,13,41,21.30
2017,05,20,13,42,21.50
2017,05,20,13,43,21.70
2017,05,20,13,44,21.70
2017,05,20,13,45,21.70
2017,05,20,13,46,21.70
2017,05,20,13,47,21.80
2017,05,20,13,48,21.80
2017,05,20,13,49,21.90
2017,05,20,13,50,21.90
2017,05,20,13,51,21.90
2017,05,20,13,52,21.80
2017,05,20,13,53,21.80
2017,05,20,13,54,21.90
2017,05,20,13,55,21.90
2017,05,20,13,56,21.90
2017,05,20,13,57,21.90
2017,05,20,13,58,21.90
2017,05,20,13,59,22.00
2017,05,20,14,00,22.10
2017,05,20,14,01,22.20
2017,05,20,14,02,22.30
2017,05,20,14,03,22.30
2017,05,20,14,04,22.30
2017,05,20,14,05,22.30
2017,05,20,14,06,22.30
2017,05,20,14,07,22.30
2017,05,20,14,08,22.30
2017,05,20,14,09,22.40
2017,05,20,14,10,22.40
2017,05,20,14,11,22.40
2017,05,20,14,12,22.30
2017,05,20,14,13,22.20
2017,05,20,14,14,22.10
2017,05,20,14,15,22.00
2017,05,20,14,16,22.00
2017,05,20,14,17,22.00
2017,05,20,14,18,21.90
2017,05,20,14,19,21.90
2017,05,20,14,20,21.80
2017,05,20,14,21,21.60
2017,05,20,14,22,21.40
2017,05,20,14,23,21.30
2017,05,20,14,24,21.30
2017,05,20,14,25,21.30
2017,05,20,14,26,21.40
2017,05,20,14,27,21.40
2017,05,20,14,28,21.40
2017,05,20,14,29,21.50
2017,05,20,14,30,21.50
2017,05,20,14,31,21.60
2017,05,20,14,32,21.60
2017,05,20,14,33,21.60
2017,05,20,14,34,21.60
2017,05,20,14,35,21.70
2017,05,20,14,36,21.70
2017,05,20,14,37,21.80
2017,05,20,14,38,21.80
2017,05,20,14,39,21.80
2017,05,20,14,40,21.70
2017,05,20,14,41,21.70
2017,05,20,14,42,21.70
2017,05,20,14,43,21.70
2017,05,20,14,44,21.80
2017,05,20,14,45,21.80
2017,05,20,14,46,21.80
2017,05,20,14,47,21.80
2017,05,20,14,48,21.80
2017,05,20,14,49,21.80
2017,05,20,14,50,21.80
2017,05,20,14,51,21.80
2017,05,20,14,52,21.80
2017,05,20,14,53,21.80
2017,05,20,14,54,21.70
2017,05,20,14,55,21.70
2017,05,20,14,56,21.70
2017,05,20,14,57,21.60
2017,05,20,14,58,21.60
2017,05,20,14,59,21.60
2017,05,20,15,00,21.60
2017,05,20,15,01,21.70
2017,05,20,15,02,21.70
2017,05,20,15,03,21.70
2017,05,20,15,04,21.70
2017,05,20,15,05,21.70
2017,05,20,15,06,21.80
2017,05,20,15,07,21.80
2017,05,20,15,08,21.80
2017,05,20,15,09,21.90
2017,05,20,15,10,21.80
2017,05,20,15,11,21.80
2017,05,20,15,12,21.70
2017,05,20,15,13,21.70
2017,05,20,15,14,21.70
2017,05,20,15,15,21.70
2017,05,20,15,16,21.60
2017,05,20,15,17,21.60
2017,05,20,15,18,21.60
2017,05,20,15,19,21.60
2017,05,20,15,20,21.50
2017,05,20,15,21,21.40
2017,05,20,15,22,21.40
2017,05,20,15,23,21.40
2017,05,20,15,24,21.30
2017,05,20,15,25,21.30
2017,05,20,15,26,21.20
2017,05,20,15,27,21.20
2017,05,20,15,28,21.20
2017,05,20,15,29,21.20
2017,05,20,15,30,21.20
2017,05,20,15,31,21.20
2017,05,20,15,32,21.30
2017,05,20,15,33,21.40
2017,05,20,15,34,21.40
2017,05,20,15,35,21.50
2017,05,20,15,36,21.60
2017,05,20,15,37,21.70
2017,05,20,15,38,21.80
2017,05,20,15,39,21.90
2017,05,20,15,40,22.00
2017,05,20,15,41,22.10
2017,05,20,15,42,22.20
2017,05,20,15,43,22.30
2017,05,20,15,44,22.30
2017,05,20,15,45,22.40
2017,05,20,15,46,22.50
2017,05,20,15,47,22.60
2017,05,20,15,48,22.60
2017,05,20,15,49,22.60
2017,05,20,15,50,22.60
2017,05,20,15,51,22.70
2017,05,20,15,52,22.70
2017,05,20,15,53,22.50
2017,05,20,15,54,22.50
2017,05,20,15,55,22.40
2017,05,20,15,56,22.50
2017,05,20,15,57,22.60
2017,05,20,15,58,22.70
2017,05,20,15,59,22.80
2017,05,20,16,00,22.90
2017,05,20,16,01,23.00
2017,05,20,16,02,23.10
2017,05,20,16,03,23.00
2017,05,20,16,04,23.00
2017,05,20,16,05,23.00
2017,05,20,16,06,22.90
2017,05,20,16,07,22.90
2017,05,20,16,08,22.90
2017,05,20,16,09,22.90
2017,05,20,16,10,22.80
2017,05,20,16,11,22.80
2017,05,20,16,12,22.70
2017,05,20,16,13,22.70
2017,05,20,16,14,22.70
2017,05,20,16,15,22.60
2017,05,20,16,16,22.50
2017,05,20,16,17,22.40
2017,05,20,16,18,22.40
2017,05,20,16,19,22.40
2017,05,20,16,20,22.50
2017,05,20,16,21,22.60
2017,05,20,16,22,22.60
2017,05,20,16,23,22.60
2017,05,20,16,24,22.60
2017,05,20,16,25,22.70
2017,05,20,16,26,22.70
2017,05,20,16,27,22.70
2017,05,20,16,28,22.70
2017,05,20,16,29,22.70
2017,05,20,16,30,22.70
2017,05,20,16,31,22.70
2017,05,20,16,32,22.70
2017,05,20,16,33,22.70
2017,05,20,16,34,22.70
2017,05,20,16,35,22.70
2017,05,20,16,36,22.60
2017,05,20,16,37,22.60
2017,05,20,16,38,22.60
2017,05,20,16,39,22.60
2017,05,20,16,40,22.60
2017,05,20,16,41,22.60
2017,05,20,16,42,22.70
2017,05,20,16,43,22.70
2017,05,20,16,44,22.70
2017,05,20,16,45,22.60
2017,05,20,16,46,22.60
2017,05,20,16,47,22.60
2017,05,20,16,48,22.50
2017,05,20,16,49,22.50
2017,05,20,16,50,22.30
2017,05,20,16,51,22.30
2017,05,20,16,52,22.30
2017,05,20,16,53,22.30
2017,05,20,16,54,22.30
2017,05,20,16,55,22.40
2017,05,20,16,56,22.40
2017,05,20,16,57,22.50
2017,05,20,16,58,22.60
2017,05,20,16,59,22.60
2017,05,20,17,00,22.60
2017,05,20,17,01,22.60
2017,05,20,17,02,22.70
2017,05,20,17,03,22.70
2017,05,20,17,04,22.80
2017,05,20,17,05,22.80
2017,05,20,17,06,22.80
2017,05,20,17,07,22.80
2017,05,20,17,08,22.80
2017,05,20,17,09,22.80
2017,05,20,17,10,22.80
2017,05,20,17,11,22.80
2017,05,20,17,12,22.90
2017,05,20,17,13,22.90
2017,05,20,17,14,22.90
2017,05,20,17,15,23.00
2017,05,20,17,16,23.00
2017,05,20,17,17,22.90
2017,05,20,17,18,22.90
2017,05,20,17,19,22.90
2017,05,20,17,20,22.90
2017,05,20,17,21,22.90
2017,05,20,17,22,22.90
2017,05,20,17,23,23.00
2017,05,20,17,24,23.00
2017,05,20,17,25,23.00
2017,05,20,17,26,23.00
2017,05,20,17,27,23.00
2017,05,20,17,28,23.00
2017,05,20,17,29,23.10
2017,05,20,17,30,23.10
2017,05,20,17,31,23.20